Content
SEND FEEDBACK

Daily
Averages
Monthly
Summary
United Kingdom

GRAVESEND, ENGLAND


Home > Europe > United Kingdom > England
Elevation: 16 feet     Latitude: 51 26N     Longitude: 000 23E

WEATHER
 
SELECT A DAY
Number of Records: 213,670;   Date Range: 7/1/96 - 10/24/14
 
SHARE

PRINT THIS DATA

[ ← Previous Day ]
WEATHER ALMANAC - JUNE 7, 2014
[ Next Day → ]
[ °C ]   °F
Weather ElementAverageHighLow
Temperature65.7 °F73.4 °F (5:50 pm)59 °F (3:50 am)
Dewpoint54.9 °F60.8 °F (10:20 am)50 °F (7:20 pm)
Humidity69.6 %88 % (3:50 am)49 % (7:20 pm)
Barometer29.89 in30.01 in (10:20 pm)29.77 in (8:20 am)
Wind Speed9.5 mph13.8 mph (12:50 am)
Weather ElementAverage
Visibility6.2 mi
Wind DirectionSSE (168.6 °)

Weather ElementTotal
Precipitation---
Cooling Degree Days1.2 (Base 65)
Growing Degree Days16.2 (Base 50)
Averaged from 43 records on June 7, 2014
WEATHER CONDITIONS BREAKOUT
WIND DIRECTION BREAKOUT
WEATHER BY HOUR - JUNE 7, 2014
[ °C ]   °F
Local TimeTemperatureDewpointHumidityBarometerVisibilityWind DirectionWind SpeedGust SpeedPrecipitationEventsConditions
12:50 AM60.8 °F53.6 °F77 %29.86 in6.2 miEast (80°)13.8 mph
1:20 AM60.8 °F53.6 °F77 %29.86 in6.2 miEast (80°)13.8 mph
1:50 AM60.8 °F53.6 °F77 %29.86 in6.2 miEast (80°)13.8 mph
2:20 AM60.8 °F53.6 °F77 %29.86 in6.2 miEast (80°)12.7 mph
2:50 AM60.8 °F53.6 °F77 %29.83 in6.2 miEast (80°)10.4 mph
3:20 AM60.8 °F53.6 °F77 %29.83 in6.2 miEast (80°)11.5 mph
3:50 AM59.0 °F55.4 °F88 %29.83 in6.2 miEast (90°)9.2 mph
4:20 AM59.0 °F55.4 °F88 %29.83 in6.2 miEast (90°)9.2 mph
4:50 AM60.8 °F55.4 °F82 %29.80 in6.2 miEast (90°)9.2 mph
5:20 AM60.8 °F55.4 °F82 %29.80 in6.2 miEast (80°)8.1 mph
5:50 AM60.8 °F57.2 °F88 %29.83 in6.2 miEast (100°)5.8 mph
6:20 AM60.8 °F57.2 °F88 %29.83 inENE (70°)6.9 mphClear
6:50 AM60.8 °F57.2 °F88 %29.80 in6.2 miENE (60°)6.9 mphPartly Cloudy
7:20 AM60.8 °F57.2 °F88 %29.80 in6.2 miVariable3.5 mphRainLight Rain Showers
7:50 AM60.8 °F57.2 °F88 %29.80 in6.2 miNE (50°)5.8 mphPartly Cloudy
8:20 AM62.6 °F59.0 °F88 %29.77 in6.2 miEast (90°)11.5 mphPartly Cloudy
8:50 AM64.4 °F59.0 °F83 %29.77 in6.2 miEast (100°)10.4 mphRainLight Rain Showers
9:50 AM68.0 °F57.2 °F68 %29.83 inSouth (170°)5.8 mphClear
10:20 AM66.2 °F60.8 °F83 %29.86 in5.6 miSSW (210°)8.1 mphRainLight Rain Showers
11:50 AM68.0 °F60.8 °F78 %29.86 in6.2 miSSW (210°)9.2 mphPartly Cloudy
12:20 PM69.8 °F60.8 °F73 %29.86 in6.2 miWSW (240°)11.5 mphScattered Clouds
1:20 PM68.0 °F59.0 °F73 %29.89 in6.2 miWSW (250°)12.7 mphMostly Cloudy
1:50 PM69.8 °F57.2 °F64 %29.89 in6.2 miWSW (250°)9.2 mphScattered Clouds
2:20 PM71.6 °F57.2 °F60 %29.89 in6.2 miWest (280°)9.2 mphScattered Clouds
2:50 PM71.6 °F55.4 °F57 %29.89 in6.2 miWest (270°)12.7 mphMostly Cloudy
3:20 PM71.6 °F51.8 °F50 %29.89 in6.2 miWest (260°)12.7 mphScattered Clouds
3:50 PM71.6 °F51.8 °F50 %29.89 in6.2 miWSW (250°)13.8 mphPartly Cloudy
4:20 PM71.6 °F53.6 °F53 %29.89 in6.2 miWSW (240°)10.4 mphMostly Cloudy
4:50 PM71.6 °F53.6 °F53 %29.92 in6.2 miWSW (240°)12.7 mphScattered Clouds
5:20 PM71.6 °F53.6 °F53 %29.92 in6.2 miSSW (210°)9.2 mphPartly Cloudy
5:50 PM73.4 °F53.6 °F50 %29.92 in6.2 miWSW (250°)8.1 mphScattered Clouds
6:20 PM71.6 °F53.6 °F53 %29.92 in6.2 miSSW (210°)10.4 mphScattered Clouds
6:50 PM71.6 °F51.8 °F50 %29.95 in6.2 miSSW (210°)11.5 mphPartly Cloudy
7:20 PM69.8 °F50.0 °F49 %29.95 in6.2 miSW (220°)9.2 mph
7:50 PM69.8 °F51.8 °F53 %29.95 in6.2 miSW (220°)9.2 mph
8:20 PM69.8 °F51.8 °F53 %29.95 in6.2 miSSW (210°)10.4 mph
8:50 PM68.0 °F50.0 °F52 %29.98 in6.2 miSW (220°)9.2 mph
9:20 PM66.2 °F51.8 °F60 %29.98 in6.2 miSSW (210°)8.1 mph
9:50 PM66.2 °F51.8 °F60 %29.98 in6.2 miSW (220°)6.9 mph
10:20 PM64.4 °F53.6 °F68 %30.01 in6.2 miSW (220°)6.9 mph
10:50 PM64.4 °F53.6 °F68 %30.01 in6.2 miSW (230°)6.9 mph
11:20 PM62.6 °F55.4 °F77 %30.01 in6.2 miSW (230°)6.9 mph
11:50 PM62.6 °F53.6 °F72 %30.01 in6.2 miSW (220°)5.8 mph
Hourly data recorded from EGLC, located miles away from Gravesend, England







STORIES FROM OUR PARTNERS